Location: Recife
(8.0585°S, 34.8848°W)
Time: 10:25:00
(UTC-03:00)

Courier 1B Rocket - Pass Details

Date: 23 April 2026
Orbit: 920 x 1201 km, 28.2° (Epoch: 13 May)

Event Time Altitude Azimuth Distance (km) Brightness Sun altitude
Rises 13:41:15 0° 274° (W) 4,004 8.8 48.8°
Reaches altitude 10° 13:45:11 10° 293° (WNW) 3,079 8.6 47.9°
Maximum altitude 13:49:55 17° 331° (NNW) 2,595 8.1 46.9°
Drops below altitude 10° 13:54:42 10° 10° (N) 3,119 7.9 45.9°
Sets 13:58:46 0° 29° (NNE) 4,078 8.2 45.0°
